Time,TemperatureF,DewpointF,PressureIn,WindDirection,WindDirectionDegrees,WindSpeedMPH,WindSpeedGustMPH,Humidity,HourlyPrecipIn,Conditions,Clouds,dailyrainin,SolarRadiationWatts/m^2,SoftwareType,DateUTC
2014-01-24 00:02:00,16.0,-2.0,-100.00,WNW,293,9.0,17.0,44,0.00,,,0.01,0.000000,,2014-01-24 05:02:00,
2014-01-24 00:12:00,16.0,-2.0,-100.00,WNW,293,9.0,17.0,44,0.00,,,0.01,0.000000,,2014-01-24 05:12:00,
2014-01-24 00:22:00,16.0,-2.0,-100.00,WNW,293,9.0,17.0,44,0.00,,,0.01,0.000000,,2014-01-24 05:22:00,
2014-01-24 00:53:00,15.0,-2.0,-100.00,WNW,294,9.0,18.0,45,0.00,,,0.01,0.000000,,2014-01-24 05:53:00,
2014-01-24 01:02:00,15.0,-2.0,-100.00,WNW,294,9.0,18.0,45,0.00,,,0.01,0.000000,,2014-01-24 06:02:00,
2014-01-24 01:12:00,15.0,-2.0,-100.00,WNW,294,9.0,18.0,45,0.00,,,0.01,0.000000,,2014-01-24 06:12:00,
2014-01-24 01:22:00,15.0,-2.0,-100.00,WNW,294,9.0,18.0,45,0.00,,,0.01,0.000000,,2014-01-24 06:22:00,
2014-01-24 01:52:00,14.0,-2.0,-100.00,WNW,294,8.0,20.0,47,0.00,,,0.01,0.000000,,2014-01-24 06:52:00,
2014-01-24 02:02:00,14.0,-2.0,-100.00,WNW,294,8.0,20.0,47,0.00,,,0.01,0.000000,,2014-01-24 07:02:00,
2014-01-24 02:11:00,14.0,-2.0,-100.00,WNW,294,8.0,20.0,47,0.00,,,0.01,0.000000,,2014-01-24 07:11:00,
2014-01-24 02:22:00,14.0,-2.0,-100.00,WNW,294,8.0,20.0,47,0.00,,,0.01,0.000000,,2014-01-24 07:22:00,
2014-01-24 02:52:00,13.0,-3.0,-100.00,WNW,290,7.0,18.0,49,0.00,,,0.01,0.000000,,2014-01-24 07:52:00,
2014-01-24 03:01:00,13.0,-3.0,-100.00,WNW,290,7.0,18.0,49,0.00,,,0.01,0.000000,,2014-01-24 08:01:00,
2014-01-24 03:12:00,13.0,-3.0,-100.00,WNW,290,7.0,18.0,49,0.00,,,0.01,0.000000,,2014-01-24 08:12:00,
2014-01-24 03:22:00,13.0,-3.0,-100.00,WNW,290,7.0,18.0,49,0.00,,,0.01,0.000000,,2014-01-24 08:22:00,
2014-01-24 03:52:00,12.0,-3.0,-100.00,WNW,288,7.0,14.0,51,0.00,,,0.01,0.000000,,2014-01-24 08:52:00,
2014-01-24 04:02:00,12.0,-3.0,-100.00,WNW,288,7.0,14.0,51,0.00,,,0.01,0.000000,,2014-01-24 09:02:00,
2014-01-24 04:12:00,12.0,-3.0,-100.00,WNW,288,7.0,14.0,51,0.00,,,0.01,0.000000,,2014-01-24 09:12:00,
2014-01-24 04:22:00,12.0,-3.0,-100.00,WNW,288,7.0,14.0,51,0.00,,,0.01,0.000000,,2014-01-24 09:22:00,
2014-01-24 04:53:00,10.0,-3.0,-100.00,WSW,249,5.0,13.0,55,0.00,,,0.01,0.000000,,2014-01-24 09:53:00,
2014-01-24 05:02:00,10.0,-3.0,-100.00,WSW,249,5.0,13.0,55,0.00,,,0.01,0.000000,,2014-01-24 10:02:00,
2014-01-24 05:13:00,10.0,-3.0,-100.00,WSW,249,5.0,13.0,55,0.00,,,0.01,0.000000,,2014-01-24 10:13:00,
2014-01-24 05:23:00,10.0,-3.0,-100.00,WSW,249,5.0,13.0,55,0.00,,,0.01,0.000000,,2014-01-24 10:23:00,
2014-01-24 05:52:00,10.0,-3.0,-100.00,West,278,7.0,13.0,54,0.00,,,0.01,0.000000,,2014-01-24 10:52:00,
2014-01-24 06:03:00,10.0,-3.0,-100.00,West,278,7.0,13.0,54,0.00,,,0.01,0.000000,,2014-01-24 11:03:00,
2014-01-24 06:12:00,10.0,-3.0,-100.00,West,278,7.0,13.0,54,0.00,,,0.01,0.000000,,2014-01-24 11:12:00,
2014-01-24 06:22:00,10.0,-3.0,-100.00,West,278,7.0,13.0,54,0.00,,,0.01,0.000000,,2014-01-24 11:22:00,
2014-01-24 06:52:00,9.0,-3.0,-100.00,West,273,7.0,12.0,56,0.00,,,0.01,0.000000,,2014-01-24 11:52:00,
2014-01-24 07:02:00,9.0,-3.0,-100.00,West,273,7.0,12.0,56,0.00,,,0.01,0.000000,,2014-01-24 12:02:00,
2014-01-24 07:12:00,9.0,-3.0,-100.00,West,273,7.0,12.0,56,0.00,,,0.01,0.000000,,2014-01-24 12:12:00,
2014-01-24 07:22:00,9.0,-3.0,-100.00,West,273,7.0,12.0,56,0.00,,,0.01,0.000000,,2014-01-24 12:22:00,
2014-01-24 07:52:00,9.0,-3.0,-100.00,West,270,6.0,12.0,56,0.00,,,0.01,2.000000,,2014-01-24 12:52:00,
2014-01-24 08:02:00,9.0,-3.0,-100.00,West,270,6.0,12.0,56,0.00,,,0.01,2.000000,,2014-01-24 13:02:00,
2014-01-24 08:12:00,9.0,-3.0,-100.00,West,270,6.0,12.0,56,0.00,,,0.01,2.000000,,2014-01-24 13:12:00,
2014-01-24 08:22:00,9.0,-3.0,-100.00,West,270,6.0,12.0,56,0.00,,,0.01,2.000000,,2014-01-24 13:22:00,
2014-01-24 08:52:00,13.0,-3.0,-100.00,West,278,9.0,15.0,47,0.00,,,0.01,82.000000,,2014-01-24 13:52:00,
2014-01-24 09:02:00,13.0,-3.0,-100.00,West,278,9.0,15.0,47,0.00,,,0.01,82.000000,,2014-01-24 14:02:00,
2014-01-24 09:11:00,13.0,-3.0,-100.00,West,278,9.0,15.0,47,0.00,,,0.01,82.000000,,2014-01-24 14:11:00,
2014-01-24 09:22:00,13.0,-3.0,-100.00,West,278,9.0,15.0,47,0.00,,,0.01,82.000000,,2014-01-24 14:22:00,
2014-01-24 09:52:00,17.0,-2.0,-100.00,WNW,292,9.0,19.0,42,0.00,,,0.01,252.000000,,2014-01-24 14:52:00,
2014-01-24 10:02:00,17.0,-2.0,-100.00,WNW,292,9.0,19.0,42,0.00,,,0.01,252.000000,,2014-01-24 15:02:00,
2014-01-24 10:12:00,17.0,-2.0,-100.00,WNW,292,9.0,19.0,42,0.00,,,0.01,252.000000,,2014-01-24 15:12:00,
2014-01-24 10:22:00,17.0,-2.0,-100.00,WNW,292,9.0,19.0,42,0.00,,,0.01,252.000000,,2014-01-24 15:22:00,
2014-01-24 10:53:00,18.0,-3.0,-100.00,WNW,300,9.0,18.0,39,0.00,,,0.01,406.000000,,2014-01-24 15:53:00,
2014-01-24 11:04:00,18.0,-3.0,-100.00,WNW,300,9.0,18.0,39,0.00,,,0.01,406.000000,,2014-01-24 16:04:00,
2014-01-24 11:13:00,18.0,-3.0,-100.00,WNW,300,9.0,18.0,39,0.00,,,0.01,406.000000,,2014-01-24 16:13:00,
2014-01-24 11:23:00,18.0,-3.0,-100.00,WNW,300,9.0,18.0,39,0.00,,,0.01,406.000000,,2014-01-24 16:23:00,
2014-01-24 11:53:00,20.0,-3.0,-100.00,WNW,293,8.0,19.0,36,0.00,,,0.00,519.000000,,2014-01-24 16:53:00,
2014-01-24 12:02:00,20.0,-3.0,-100.00,WNW,293,8.0,19.0,36,0.00,,,0.00,519.000000,,2014-01-24 17:02:00,
2014-01-24 12:12:00,20.0,-3.0,-100.00,WNW,293,8.0,19.0,36,0.00,,,0.00,519.000000,,2014-01-24 17:12:00,
2014-01-24 12:22:00,20.0,-3.0,-100.00,WNW,293,8.0,19.0,36,0.00,,,0.00,519.000000,,2014-01-24 17:22:00,
2014-01-24 12:53:00,22.0,-1.0,-100.00,WNW,300,7.0,18.0,35,0.00,,,0.00,576.000000,,2014-01-24 17:53:00,
2014-01-24 13:02:00,22.0,-1.0,-100.00,WNW,300,7.0,18.0,35,0.00,,,0.00,576.000000,,2014-01-24 18:02:00,
2014-01-24 13:12:00,22.0,-1.0,-100.00,WNW,300,7.0,18.0,35,0.00,,,0.00,576.000000,,2014-01-24 18:12:00,
2014-01-24 13:22:00,22.0,-1.0,-100.00,WNW,300,7.0,18.0,35,0.00,,,0.00,576.000000,,2014-01-24 18:22:00,
2014-01-24 13:52:00,23.0,-1.0,-100.00,WNW,301,7.0,20.0,34,0.00,,,0.00,572.000000,,2014-01-24 18:52:00,
2014-01-24 14:02:00,23.0,-1.0,-100.00,WNW,301,7.0,20.0,34,0.00,,,0.00,572.000000,,2014-01-24 19:02:00,
2014-01-24 14:12:00,23.0,-1.0,-100.00,WNW,301,7.0,20.0,34,0.00,,,0.00,572.000000,,2014-01-24 19:12:00,
2014-01-24 14:22:00,23.0,-1.0,-100.00,WNW,301,7.0,20.0,34,0.00,,,0.00,572.000000,,2014-01-24 19:22:00,
2014-01-24 14:52:00,22.0,-1.0,-100.00,West,261,9.0,16.0,35,0.00,,,0.00,505.000000,,2014-01-24 19:52:00,
2014-01-24 15:02:00,22.0,-1.0,-100.00,West,261,9.0,16.0,35,0.00,,,0.00,505.000000,,2014-01-24 20:02:00,
2014-01-24 15:11:00,22.0,-1.0,-100.00,West,261,9.0,16.0,35,0.00,,,0.00,505.000000,,2014-01-24 20:11:00,
2014-01-24 15:22:00,22.0,-1.0,-100.00,West,261,9.0,16.0,35,0.00,,,0.00,505.000000,,2014-01-24 20:22:00,
2014-01-24 15:52:00,21.0,-3.0,-100.00,West,277,9.0,16.0,34,0.00,,,0.00,385.000000,,2014-01-24 20:52:00,
2014-01-24 16:03:00,21.0,-3.0,-100.00,West,277,9.0,16.0,34,0.00,,,0.00,385.000000,,2014-01-24 21:03:00,
2014-01-24 16:12:00,21.0,-3.0,-100.00,West,277,9.0,16.0,34,0.00,,,0.00,385.000000,,2014-01-24 21:12:00,
2014-01-24 16:22:00,21.0,-3.0,-100.00,West,277,9.0,16.0,34,0.00,,,0.00,385.000000,,2014-01-24 21:22:00,
2014-01-24 16:53:00,19.0,-4.0,-100.00,West,273,8.0,15.0,35,0.00,,,0.00,192.000000,,2014-01-24 21:53:00,
2014-01-24 17:03:00,19.0,-4.0,-100.00,West,273,8.0,15.0,35,0.00,,,0.00,192.000000,,2014-01-24 22:03:00,
2014-01-24 17:13:00,19.0,-4.0,-100.00,West,273,8.0,15.0,35,0.00,,,0.00,192.000000,,2014-01-24 22:13:00,
2014-01-24 17:23:00,19.0,-4.0,-100.00,West,273,8.0,15.0,35,0.00,,,0.00,192.000000,,2014-01-24 22:23:00,
2014-01-24 17:52:00,17.0,-3.0,-100.00,SW,229,5.0,12.0,41,0.00,,,0.00,23.000000,,2014-01-24 22:52:00,
2014-01-24 18:02:00,17.0,-3.0,-100.00,SW,229,5.0,12.0,41,0.00,,,0.00,23.000000,,2014-01-24 23:02:00,
2014-01-24 18:11:00,17.0,-3.0,-100.00,SW,229,5.0,12.0,41,0.00,,,0.00,23.000000,,2014-01-24 23:11:00,
2014-01-24 18:22:00,17.0,-3.0,-100.00,SW,229,5.0,12.0,41,0.00,,,0.00,23.000000,,2014-01-24 23:22:00,
2014-01-24 18:53:00,14.0,-2.0,-100.00,SW,215,3.0,10.0,48,0.00,,,0.00,0.000000,,2014-01-24 23:53:00,
2014-01-24 19:02:00,14.0,-2.0,-100.00,SW,215,3.0,10.0,48,0.00,,,0.00,0.000000,,2014-01-25 00:02:00,
2014-01-24 19:11:00,14.0,-2.0,-100.00,SW,215,3.0,10.0,48,0.00,,,0.00,0.000000,,2014-01-25 00:11:00,
2014-01-24 19:22:00,14.0,-2.0,-100.00,SW,215,3.0,10.0,48,0.00,,,0.00,0.000000,,2014-01-25 00:22:00,
2014-01-24 19:52:00,11.0,-2.0,-100.00,SSW,204,2.0,5.0,54,0.00,,,0.00,0.000000,,2014-01-25 00:52:00,
2014-01-24 20:02:00,11.0,-2.0,-100.00,SSW,204,2.0,5.0,54,0.00,,,0.00,0.000000,,2014-01-25 01:02:00,
2014-01-24 20:12:00,11.0,-2.0,-100.00,SSW,204,2.0,5.0,54,0.00,,,0.00,0.000000,,2014-01-25 01:12:00,
2014-01-24 20:22:00,11.0,-2.0,-100.00,SSW,204,2.0,5.0,54,0.00,,,0.00,0.000000,,2014-01-25 01:22:00,
2014-01-24 20:52:00,12.0,-1.0,-100.00,South,187,3.0,7.0,54,0.00,,,0.00,0.000000,,2014-01-25 01:52:00,
2014-01-24 21:02:00,12.0,-1.0,-100.00,South,187,3.0,7.0,54,0.00,,,0.00,0.000000,,2014-01-25 02:02:00,
2014-01-24 21:12:00,12.0,-1.0,-100.00,South,187,3.0,7.0,54,0.00,,,0.00,0.000000,,2014-01-25 02:12:00,
2014-01-24 21:22:00,12.0,-1.0,-100.00,South,187,3.0,7.0,54,0.00,,,0.00,0.000000,,2014-01-25 02:22:00,
2014-01-24 21:52:00,11.0,-2.0,-100.00,South,189,2.0,6.0,56,0.00,,,0.00,0.000000,,2014-01-25 02:52:00,
2014-01-24 22:02:00,11.0,-2.0,-100.00,South,189,2.0,6.0,56,0.00,,,0.00,0.000000,,2014-01-25 03:02:00,
2014-01-24 22:11:00,11.0,-2.0,-100.00,South,189,2.0,6.0,56,0.00,,,0.00,0.000000,,2014-01-25 03:11:00,
2014-01-24 22:22:00,11.0,-2.0,-100.00,South,189,2.0,6.0,56,0.00,,,0.00,0.000000,,2014-01-25 03:22:00,
2014-01-24 22:53:00,13.0,0.0,-100.00,SSW,193,3.0,9.0,54,0.00,,,0.00,0.000000,,2014-01-25 03:53:00,
2014-01-24 23:03:00,13.0,0.0,-100.00,SSW,193,3.0,9.0,54,0.00,,,0.00,0.000000,,2014-01-25 04:03:00,
2014-01-24 23:13:00,13.0,0.0,-100.00,SSW,193,3.0,9.0,54,0.00,,,0.00,0.000000,,2014-01-25 04:13:00,
2014-01-24 23:23:00,13.0,0.0,-100.00,SSW,193,3.0,9.0,54,0.00,,,0.00,0.000000,,2014-01-25 04:23:00,
2014-01-24 23:53:00,15.0,1.0,-100.00,North,-999,0.0,9.0,53,0.00,,,0.00,0.000000,,2014-01-25 04:53:00,